Moorhead, MN

11:39 PM CDT on March 27, 2017 (GMT -0500)
Moorhead Municipal

Weather History for KJKJ - May, 2012

Change the Weather History Date:

Monday, May 7, 2012

  Actual Average (KFAR) Record (KFAR)
Temperature  
Mean Temperature 54 °F -  
Max Temperature 62 °F 63 °F 91 °F (1992)
Min Temperature 46 °F 40 °F 21 °F (1885)
Degree Days  
Heating Degree Days 11    
Growing Degree Days 4 (Base 50)    
Moisture  
Dew Point 43 °F    
Average Humidity 67    
Maximum Humidity 94    
Minimum Humidity 45    
Precipitation  
Precipitation 0.07 in - - ()
Sea Level Pressure  
Sea Level Pressure 29.90 in    
Wind  
Wind Speed 13 mph (West)    
Max Wind Speed 26 mph    
Max Gust Speed 33 mph    
Visibility 10 miles    
Events Rain    
Averages and records for this station are not official NWS values.
T = Trace of Precipitation, MM = Missing Value Source: NWS Daily Summary

Daily Weather History Graph

Daily Weather History Graph

Search for Another Location

Airport or City:

Trip Planner

Search our weather history database for the weather conditions in past years. The results will help you decide how hot, cold, wet, or windy it might be!

Date:

Astronomy

May. 07, 2012 Rise Set
Actual Time 6:01 AM CDT 8:45 PM CDT
Civil Twilight 5:26 AM CDT 9:20 PM CDT
Nautical Twilight 4:42 AM CDT 10:04 PM CDT
Astronomical Twilight 3:51 AM CDT 10:56 PM CDT
Moon 11:04 PM CDT (5/7) 7:02 AM CDT (5/7)
Length of Visible Light 15h 53m
Length of Day
14h 43m
Waning Gibbous, 96% of the Moon is Illuminated
May 7
Waning Gibbous
May 12
Last Quarter
May 20
New
May 28
First Quarter
Jun 4
Full

Hourly Weather History & Observations

Time (CDT) Temp. Windchill Dew Point Humidity Pressure Visibility Wind Dir Wind Speed Gust Speed Precip Events Conditions
12:14 AM 53.6 °F - 37.4 °F 54% 29.95 in 10.0 mi WSW 8.1 mph - N/A   Clear
12:33 AM 55.4 °F - 37.4 °F 51% 29.96 in 10.0 mi WSW 9.2 mph - N/A   Clear
12:54 AM 55.4 °F - 39.2 °F 54% 29.96 in 10.0 mi West 15.0 mph 21.9 mph N/A   Clear
1:14 AM 55.4 °F - 39.2 °F 54% 29.96 in 10.0 mi West 12.7 mph - N/A   Clear
1:34 AM 53.6 °F - 39.2 °F 58% 29.95 in 10.0 mi WSW 10.4 mph - N/A   Clear
1:54 AM 53.6 °F - 39.2 °F 58% 29.95 in 10.0 mi WSW 8.1 mph - N/A   Clear
2:14 AM 51.8 °F - 39.2 °F 62% 29.95 in 10.0 mi SW 8.1 mph - N/A   Clear
2:34 AM 51.8 °F - 39.2 °F 62% 29.94 in 10.0 mi WSW 9.2 mph - N/A   Clear
2:54 AM 53.6 °F - 41.0 °F 62% 29.93 in 10.0 mi West 13.8 mph - N/A   Clear
3:14 AM 53.6 °F - 41.0 °F 62% 29.94 in 10.0 mi West 11.5 mph - N/A   Clear
3:34 AM 51.8 °F - 41.0 °F 67% 29.93 in 10.0 mi WSW 8.1 mph - N/A   Clear
3:54 AM 50.0 °F - 41.0 °F 71% 29.94 in 10.0 mi WSW 9.2 mph - N/A   Clear
4:14 AM 50.0 °F - 42.8 °F 76% 29.94 in 10.0 mi WSW 6.9 mph - N/A   Clear
4:34 AM 50.0 °F - 42.8 °F 76% 29.93 in 10.0 mi West 10.4 mph - N/A   Clear
4:54 AM 48.2 °F - 42.8 °F 82% 29.94 in 10.0 mi WSW 8.1 mph - N/A   Clear
5:15 AM 46.4 °F 42.9 °F 41.0 °F 81% 29.93 in 10.0 mi SW 6.9 mph - N/A   Clear
5:34 AM 46.4 °F 42.9 °F 41.0 °F 81% 29.93 in 10.0 mi WSW 6.9 mph - N/A   Clear
5:54 AM 48.2 °F - 42.8 °F 82% 29.92 in 10.0 mi WSW 8.1 mph - N/A   Clear
6:13 AM 46.4 °F 42.4 °F 41.0 °F 81% 29.92 in 10.0 mi SW 8.1 mph - N/A   Clear
6:34 AM 46.4 °F 41.9 °F 42.8 °F 87% 29.92 in 10.0 mi WSW 9.2 mph - N/A   Clear
6:54 AM 48.2 °F - 42.8 °F 82% 29.92 in 10.0 mi WSW 9.2 mph - N/A   Clear
7:14 AM 48.2 °F - 42.8 °F 82% 29.92 in 10.0 mi WSW 9.2 mph - N/A   Clear
7:34 AM 51.8 °F - 42.8 °F 71% 29.92 in 10.0 mi WSW 12.7 mph - N/A   Clear
7:54 AM 51.8 °F - 44.6 °F 76% 29.92 in 10.0 mi West 15.0 mph - N/A   Clear
8:14 AM 53.6 °F - 44.6 °F 72% 29.91 in 10.0 mi West 20.7 mph 25.3 mph N/A   Clear
8:34 AM 53.6 °F - 44.6 °F 72% 29.91 in 10.0 mi West 25.3 mph 33.4 mph N/A   Clear
8:54 AM 55.4 °F - 44.6 °F 67% 29.90 in 10.0 mi WNW 24.2 mph 27.6 mph N/A   Clear
9:14 AM 55.4 °F - 42.8 °F 63% 29.90 in 10.0 mi WNW 21.9 mph - N/A   Clear
9:34 AM 57.2 °F - 42.8 °F 59% 29.90 in 10.0 mi WNW 20.7 mph 26.5 mph N/A   Mostly Cloudy
9:54 AM 55.4 °F - 42.8 °F 63% 29.90 in 10.0 mi WNW 23.0 mph 26.5 mph N/A   Overcast
10:14 AM 55.4 °F - 42.8 °F 63% 29.90 in 10.0 mi West 21.9 mph 26.5 mph N/A   Overcast
10:34 AM 55.4 °F - 42.8 °F 63% 29.90 in 10.0 mi West 21.9 mph 27.6 mph N/A   Overcast
10:53 AM 57.2 °F - 42.8 °F 59% 29.90 in 10.0 mi West 18.4 mph 24.2 mph N/A   Overcast
11:14 AM 57.2 °F - 42.8 °F 59% 29.89 in 10.0 mi West 20.7 mph 26.5 mph N/A   Mostly Cloudy
11:34 AM 57.2 °F - 42.8 °F 59% 29.90 in 10.0 mi West 23.0 mph - N/A   Overcast
11:54 AM 57.2 °F - 42.8 °F 59% 29.90 in 10.0 mi West 17.3 mph 24.2 mph N/A   Overcast
12:14 PM 59.0 °F - 42.8 °F 55% 29.89 in 10.0 mi West 17.3 mph 25.3 mph N/A   Overcast
12:34 PM 59.0 °F - 39.2 °F 48% 29.89 in 10.0 mi West 16.1 mph - N/A   Overcast
12:54 PM 57.2 °F - 42.8 °F 59% 29.89 in 10.0 mi WNW 17.3 mph - N/A   Overcast
1:14 PM 57.2 °F - 44.6 °F 63% 29.89 in 10.0 mi West 17.3 mph 26.5 mph N/A   Overcast
1:33 PM 57.2 °F - 42.8 °F 59% 29.89 in 10.0 mi West 17.3 mph 25.3 mph N/A   Overcast
1:54 PM 59.0 °F - 42.8 °F 55% 29.89 in 10.0 mi West 16.1 mph 23.0 mph N/A   Overcast
2:14 PM 59.0 °F - 41.0 °F 51% 29.88 in 10.0 mi West 13.8 mph - N/A   Overcast
2:34 PM 60.8 °F - 39.2 °F 45% 29.88 in 10.0 mi West 15.0 mph 21.9 mph N/A   Mostly Cloudy
2:54 PM 59.0 °F - 42.8 °F 55% 29.88 in 10.0 mi West 17.3 mph - N/A   Overcast
3:14 PM 59.0 °F - 42.8 °F 55% 29.87 in 10.0 mi West 16.1 mph 23.0 mph N/A   Mostly Cloudy
3:33 PM 60.8 °F - 42.8 °F 52% 29.87 in 10.0 mi West 17.3 mph - N/A   Mostly Cloudy
3:54 PM 62.6 °F - 42.8 °F 48% 29.86 in 10.0 mi West 16.1 mph 20.7 mph N/A   Mostly Cloudy
4:14 PM 62.6 °F - 42.8 °F 48% 29.86 in 10.0 mi West 23.0 mph 27.6 mph N/A   Mostly Cloudy
4:34 PM 62.6 °F - 42.8 °F 48% 29.86 in 10.0 mi West 21.9 mph 29.9 mph N/A   Scattered Clouds
4:54 PM 62.6 °F - 41.0 °F 45% 29.85 in 10.0 mi West 26.5 mph 31.1 mph N/A   Scattered Clouds
5:14 PM 62.6 °F - 41.0 °F 45% 29.86 in 10.0 mi West 21.9 mph 31.1 mph N/A   Mostly Cloudy
5:34 PM 62.6 °F - 42.8 °F 48% 29.86 in 10.0 mi WNW 21.9 mph 27.6 mph N/A   Scattered Clouds
5:54 PM 60.8 °F - 42.8 °F 52% 29.85 in 10.0 mi WNW 23.0 mph 32.2 mph N/A   Scattered Clouds
6:15 PM 62.6 °F - 42.8 °F 48% 29.86 in 10.0 mi WNW 20.7 mph - N/A   Mostly Cloudy
6:34 PM 57.2 °F - 48.2 °F 72% 29.86 in 7.0 mi West 13.8 mph 21.9 mph N/A   Light Drizzle
6:54 PM 59.0 °F - 46.4 °F 63% 29.86 in 10.0 mi West 18.4 mph 23.0 mph N/A   Mostly Cloudy
6:59 PM 59.0 °F - 46.4 °F 63% 29.86 in 10.0 mi WNW 19.6 mph - N/A   Mostly Cloudy
7:34 PM 55.4 °F - 46.4 °F 72% 29.86 in 4.0 mi WNW 12.7 mph 33.4 mph 0.05 in Rain Heavy Rain
7:54 PM 55.4 °F - 48.2 °F 77% 29.86 in 10.0 mi West 9.2 mph - 0.05 in   Mostly Cloudy
8:14 PM 55.4 °F - 48.2 °F 77% 29.87 in 10.0 mi NW 17.3 mph 23.0 mph N/A Rain Light Rain
8:34 PM 53.6 °F - 48.2 °F 82% 29.88 in 10.0 mi NNW 11.5 mph - N/A   Overcast
8:54 PM 51.8 °F - 50.0 °F 94% 29.88 in 10.0 mi WNW 5.8 mph - 0.02 in Rain Light Rain
9:14 PM 51.8 °F - 50.0 °F 94% 29.88 in 10.0 mi West 6.9 mph - N/A   Mostly Cloudy
9:34 PM 51.8 °F - 50.0 °F 94% 29.88 in 10.0 mi West 6.9 mph - N/A   Overcast
9:54 PM 51.8 °F - 50.0 °F 94% 29.88 in 10.0 mi WNW 6.9 mph - N/A   Mostly Cloudy
10:14 PM 51.8 °F - 48.2 °F 88% 29.88 in 10.0 mi WNW 5.8 mph - N/A   Mostly Cloudy
10:34 PM 51.8 °F - 48.2 °F 88% 29.88 in 10.0 mi WNW 5.8 mph - N/A   Overcast
10:54 PM 51.8 °F - 50.0 °F 94% 29.88 in 10.0 mi NNW 3.5 mph - N/A   Overcast
11:14 PM 51.8 °F - 48.2 °F 88% 29.88 in 10.0 mi NW 13.8 mph 18.4 mph N/A   Overcast
11:34 PM 51.8 °F - 48.2 °F 88% 29.87 in 10.0 mi NW 8.1 mph - N/A   Mostly Cloudy
11:54 PM 51.8 °F - 48.2 °F 88% 29.87 in 10.0 mi WNW 8.1 mph - N/A   Overcast